This demonstration page uses our WeatherBlox Daily Observations layout. Learn more.

Left ArrowRight Arrow

38.89511, -77.03637

Hourly Observations for May 7, 2018

Temp ( °F °C ) Dew Point ( °F °C ) Humidity (%) Winds ( mph kmh ) Pressure ( in mb ) Visibility ( mi km ) Precip ( " mm )
12:52 am 00:52 Mostly Cloudy 60 15.6 53 11.7 78 78 NNW 6 9 29.96 1015 10 16 0.00 0.00
1:52 am 01:52 Cloudy 60 15.6 53 11.7 78 78 NNW 8 13 29.96 1014 10 16 0.00 0.00
2:02 am 02:02 Cloudy 60 15.6 53 11.7 78 78 N 10 17 29.97 1015 10 16 0.00 0.00
2:52 am 02:52 Partly Cloudy 58 14.4 52 11.1 81 81 N 7 11 29.96 1014 10 16 0.00 0.00
3:52 am 03:52 Mostly Cloudy 60 15.6 52 11.1 75 75 NNE 10 17 29.97 1015 10 16 0.00 0.00
4:52 am 04:52 Mostly Cloudy 60 15.6 52 11.1 75 75 N 10 17 29.98 1015 10 16 0.00 0.00
5:52 am 05:52 Mostly Cloudy 58 14.4 52 11.1 81 81 N 8 13 29.99 1016 10 16 0.00 0.00
6:52 am 06:52 Mostly Sunny 59 15 52 11.1 78 78 N 10 17 30.02 1017 10 16 0.00 0.00
7:52 am 07:52 Mostly Sunny 62 16.7 52 11.1 70 70 N 6 9 30.05 1018 10 16 0.00 0.00
8:52 am 08:52 Mostly Sunny 64 17.8 52 11.1 65 65 NNE 8 13 30.07 1018 10 16 0.00 0.00
9:52 am 09:52 Partly Cloudy 67 19.4 53 11.7 61 61 NNE 9 15 30.07 1018 10 16 0.00 0.00
10:52 am 10:52 Partly Cloudy 69 20.6 52 11.1 55 55 ENE 7 11 30.08 1019 10 16 0.00 0.00
11:52 am 11:52 Partly Cloudy 71 21.7 51 10.6 49 49 E 9 15 30.09 1019 10 16 0.00 0.00
12:52 pm 12:52 Partly Cloudy 73 22.8 52 11.1 48 48 NE 9 15 30.07 1018 10 16 0.00 0.00
1:52 pm 13:52 Partly Cloudy 74 23.3 51 10.6 45 45 E 6 9 30.07 1018 10 16 0.00 0.00
2:52 pm 14:52 Partly Cloudy 76 24.4 50 10 40 40 NNE 14 22 30.07 1018 10 16 0.00 0.00
3:52 pm 15:52 Partly Cloudy 76 24.4 50 10 40 40 NE 12 19 30.06 1018 10 16 0.00 0.00
4:52 pm 16:52 Partly Cloudy 76 24.4 50 10 40 40 E 7 11 30.06 1018 10 16 0.00 0.00
5:52 pm 17:52 Partly Cloudy 75 23.9 51 10.6 43 43 E 7 11 30.06 1018 10 16 0.00 0.00
6:52 pm 18:52 Mostly Sunny 73 22.8 51 10.6 46 46 ESE 8 13 30.07 1018 10 16 0.00 0.00
7:52 pm 19:52 Mostly Sunny 71 21.7 50 10 47 47 SE 9 15 30.09 1019 10 16 0.00 0.00
8:52 pm 20:52 Partly Cloudy 69 20.6 51 10.6 53 53 SSE 5 7 30.11 1020 10 16 0.00 0.00
9:52 pm 21:52 Mostly Clear 67 19.4 51 10.6 57 57 S 5 7 30.12 1020 10 16 0.00 0.00
10:52 pm 22:52 Mostly Cloudy 67 19.4 52 11.1 59 59 Calm 30.14 1021 10 16 0.00 0.00
11:52 pm 23:52 Partly Cloudy 65 18.3 52 11.1 63 63 ESE 6 9 30.16 1022 10 16 0.00 0.00

Powered by AerisWeather